This is the latest recevied weather packets stored in our database for station/object N4WFF. If no packets are shown the sender has not sent any weather packets the latest 10 day(s).
| Time | Temp. | Humidity | Pressure | Rain* | Wind** | Luminosity | Snow |
|---|---|---|---|---|---|---|---|
| 1778006155 | 25° C | 58% | 1015.4 hPa | 0 mm | - | 966 W/m² | - |
| 1778005856 | 25° C | 61% | 1015.6 hPa | 0 mm | - | 1016 W/m² | - |
| 1778005555 | 25.56° C | 59% | 1015.6 hPa | 0 mm | - | 479 W/m² | - |
| 1778005256 | 25° C | 59% | 1015.6 hPa | 0 mm | - | 1053 W/m² | - |
| 1778004956 | 24.44° C | 62% | 1015.7 hPa | 0 mm | - | 1051 W/m² | - |
| 1778004657 | 25° C | 60% | 1015.6 hPa | 0 mm | - | 325 W/m² | - |
| 1778004357 | 25° C | 62% | 1015.7 hPa | 0 mm | - | 1126 W/m² | - |
| 1778004056 | 25° C | 59% | 1015.7 hPa | 0 mm | - | 768 W/m² | - |
| 1778003756 | 25° C | 62% | 1015.6 hPa | 0 mm | - | 779 W/m² | - |
| 1778003457 | 25° C | 59% | 1015.7 hPa | 0 mm | - | 1085 W/m² | - |
| 1778003156 | 25° C | 58% | 1015.7 hPa | 0 mm | - | 1055 W/m² | - |
| 1778002856 | 25° C | 61% | 1015.7 hPa | 0 mm | - | 857 W/m² | - |
| 1778002556 | 25° C | 61% | 1015.8 hPa | 0 mm | - | 1019 W/m² | - |
| 1778002256 | 24.44° C | 59% | 1015.6 hPa | 0 mm | - | 970 W/m² | - |
| 1778001955 | 24.44° C | 61% | 1015.7 hPa | 0 mm | - | 992 W/m² | - |
| 1778001656 | 24.44° C | 62% | 1015.7 hPa | 0 mm | - | 537 W/m² | - |
| 1778001355 | 24.44° C | 62% | 1015.7 hPa | 0 mm | - | 361 W/m² | - |
| 1778001056 | 24.44° C | 63% | 1015.8 hPa | 0 mm | - | 989 W/m² | - |
| 1778000756 | 23.89° C | 63% | 1015.8 hPa | 0 mm | - | 932 W/m² | - |
| 1778000456 | 23.89° C | 63% | 1015.9 hPa | 0 mm | - | 915 W/m² | - |
| 1778000156 | 23.89° C | 64% | 1015.9 hPa | 0 mm | - | 800 W/m² | - |
| 1777999855 | 23.89° C | 64% | 1015.8 hPa | 0 mm | - | 820 W/m² | - |
| 1777999555 | 23.33° C | 64% | 1015.9 hPa | 0 mm | - | 810 W/m² | - |
| 1777999257 | 23.33° C | 64% | 1015.9 hPa | 0 mm | - | 863 W/m² | - |
| 1777998956 | 23.33° C | 63% | 1015.9 hPa | 0 mm | - | 860 W/m² | - |
* Rain latest hour (hover to see other rain measurements)
** Current wind speed in m/s (hover to see current wind gust speed)